User: anonymous   Login
Location: Pine Mountain Observatory
(43.7910°N, 120.9377°W)
Time: 17:31:10
(UTC-07:00)
Language:

Courier 1B Rocket - Orbit

View from above orbital plane
View from above orbital plane
View from above satellite
View from above satellite

Ground track
Ground track

The orbit data is extracted from the following two-line orbital elements,

1    59U 60013B   19140.31444245 +.00000079 +00000-0 -17418-4 0  9998
2    59 028.2495 082.7887 0189255 218.0654 140.6383 13.52968439893186
Epoch (UTC): 20 May 2019 07:32:47
Eccentricity: 0.0189255
inclination: 28.2495°
perigee height: 920 km
apogee height: 1202 km
right ascension of ascending node: 82.7887°
argument of perigee: 218.0654°
revolutions per day: 13.52968439
mean anomaly at epoch: 140.6383°
orbit number at epoch: 89318

The dashed part of the orbit path shows where the satellite is in the earth's shadow,  

DLR